This is the latest recevied weather packets stored in our database for station/object GCEMA. If no packets are shown the sender has not sent any weather packets the latest 10 day(s).
| Time | Temp. | Humidity | Pressure | Rain* | Wind** | Luminosity | Snow |
|---|---|---|---|---|---|---|---|
| 1778275537 | 21.67° C | - | 1006.6 hPa | 0 mm | 0 m/s | - | - |
| 1778275357 | 21.11° C | - | 1006.5 hPa | 0 mm | 0 m/s | - | - |
| 1778275174 | 20.56° C | - | 1006.4 hPa | 0 mm | 0 m/s | - | - |
| 1778274995 | 21.11° C | - | 1006.5 hPa | 0 mm | 0 m/s | - | - |
| 1778274815 | 20.56° C | - | 1006.5 hPa | 0 mm | 0 m/s | - | - |
| 1778274636 | 20.56° C | - | 1006.5 hPa | 0 mm | 0 m/s | - | - |
| 1778274457 | 21.11° C | - | 1006.6 hPa | 0 mm | 0 m/s | - | - |
| 1778274274 | 20.56° C | - | 1006.6 hPa | 0 mm | 0 m/s | - | - |
| 1778274096 | 21.11° C | - | 1006.6 hPa | 0 mm | 0 m/s | - | - |
| 1778273917 | 21.11° C | - | 1006.6 hPa | 0 mm | 0 m/s | - | - |
| 1778273556 | 20.56° C | - | 1006.6 hPa | 0 mm | 0 m/s | - | - |
| 1778273195 | 22.22° C | - | 1006.4 hPa | 0 mm | 0 m/s | - | - |
| 1778273015 | 22.22° C | - | 1006.4 hPa | 0 mm | 0 m/s | - | - |
| 1778272835 | 22.22° C | - | 1006.4 hPa | 0 mm | 0 m/s | - | - |
| 1778272656 | 22.22° C | - | 1006.5 hPa | 0 mm | 0 m/s | - | - |
| 1778272294 | 21.11° C | - | 1006.6 hPa | 0 mm | 0 m/s | - | - |
| 1778271935 | 22.22° C | - | 1006.7 hPa | 0 mm | 0 m/s | - | - |
| 1778271573 | 21.67° C | - | 1006.8 hPa | 0 mm | 0 m/s | - | - |
| 1778271214 | 22.22° C | - | 1006.9 hPa | 0 mm | 0 m/s | - | - |
| 1778271034 | 22.22° C | - | 1007.1 hPa | 0 mm | 0 m/s | - | - |
| 1778270855 | 22.78° C | - | 1007.1 hPa | 0 mm | 0 m/s | - | - |
| 1778270315 | 21.67° C | - | 1007.2 hPa | 0 mm | 0 m/s | - | - |
| 1778270134 | 21.11° C | - | 1007.2 hPa | 0 mm | 0 m/s | - | - |
| 1778269954 | 21.67° C | - | 1007.2 hPa | 0 mm | 0 m/s | - | - |
| 1778269772 | 21.67° C | - | 1007.3 hPa | 0 mm | 0 m/s | - | - |
* Rain latest hour (hover to see other rain measurements)
** Current wind speed in m/s (hover to see current wind gust speed)